STARLINK-36317, 67736

Orbit data source: Space-Track

STARLINK-36317, 67736 is a payload satellite owned by SpaceX/Seattle (US) in SSO that was launched on Wed, 11 Feb 2026 UTC via an FALCON 9 launch vehicle from the Air Force Western Test Range (AFWTR). Payload-class satellites include a variety of spacecraft equipped with specific instruments for various scientific and technological missions. These include communications satellites like Starlink; space stations such as the ISS; scientific satellites like the Hubble; Earth observation satellites from companies like Planet Labs, Umbra, and HawkEye 360; GPS; miniature CubeSats for education and research; and military/defense satellites.

Loading next visibility...
Identifier
67736, 2026-026R
Orbit
SSO
Country
Flag of USUS
Related business
Manufacturer
SpaceX/Seattle
Mission
Operational Commercial Communications
Bus & Motor
STARLINK V2MO, Unknown motor
Mass
575 kg wet, ~530 kg dry
Launch date (UTC)
2026-02-11 (3 months ago)
Launch vehicle
FALCON 9
Launch site
Air Force Western Test Range (AFWTR)
Object type
Payload
Rocket body
Debris
Shape & HBR
Box + 2 Pan, 17.7 m
Radar Cross Section
36.964 m²

Expand to show TLE details & history
Last TLE update: 8 hours ago

TLE from 8 hours ago
0 STARLINK-36317
1 67736U 26026R   26130.13151204  .00013135  00000-0  40845-3 0  9991
2 67736  97.2843 183.8921 0001233  84.2838 275.8545 15.33445810 13541
Epoch: 2026-05-10T03:09Z
TLE epoch observation values (Epoch: 2026-05-10T03:09:22.640Z)
Latitude
-0.00004°
Longitude
-91.39122°
Altitude
468.567 km
Speed
7.632 km/s
True Right ascension
12h 15m 34s
True Declination
0° 00' 00"
Sunlit
Object was in full shadow at epoch
Visualization orbit readout
Latitude
Unknown
Longitude
Unknown
Altitude
Unknown
Speed
Unknown
Apparent Right ascension
Unknown
Apparent Declination
Unknown
Sunlit
N/A
Visualization observer readout
Local Sidereal Time
19:48:54
Azimuth
Unknown
Elevation
Unknown
Doppler factor
Unknown
Orbital elements
Apogee altitude
463.327 km
Perigee altitude
461.64 km
Semi-major axis
6,840.62 km
Eccentricity
0.00012
Inclination
97.2843°
RAAN
183.8921°
Arg. of periapsis
84.2838°
True anomaly
275.84044°
Mean anomaly
275.8545°
Eccentric anomaly
275.84747°
Mean motion
3.83619 °/min
Orbital period
93.84 mins
BSTAR
0.00040845
Loading maneuver chart data...
Computing Atmospheric mass density...
Loading historical data...
Loading historical data...
Loading historical data...
Loading historical data...
Loading historical data...
Loading historical data...
Loading historical data...

Documentation

Showing up to 5 results
|